Index of /images/shv/JBH WEB

[ICO]NameLast modifiedSizeDescription

[DIR]Parent Directory  -  
[IMG]00z_Thu.jpg20-Mar-2016 22:13 106K 
[IMG]00z_Thur_New.gif20-Mar-2016 22:13 151K 
[IMG]00z_Thur_New1.gif20-Mar-2016 22:13 148K 
[IMG]00z_Wed.jpg20-Mar-2016 22:13 104K 
[IMG]06z_thur.gif20-Mar-2016 22:13 152K 
[IMG]08 holm.jpg20-Mar-2016 22:13 650K 
[IMG]3-18-cape.png20-Mar-2016 22:13 265K 
[IMG]3-18-collision.png20-Mar-2016 22:13 34K 
[IMG]3-18-rain.gif20-Mar-2016 22:14 42K 
[IMG]3-18-svr.gif20-Mar-2016 22:14 28K 
[IMG]3-18-svr2.gif20-Mar-2016 22:14 23K 
[IMG]3-19-rain2.gif20-Mar-2016 22:14 42K 
[IMG]3precip.JPG20-Mar-2016 22:14 69K 
[IMG]3temp.JPG20-Mar-2016 22:14 63K 
[IMG]5dayqpf.gif20-Mar-2016 22:14 37K 
[IMG]12z_Wed.jpg20-Mar-2016 22:14 111K 
[IMG]12z_wed_new.gif20-Mar-2016 22:14 149K 
[IMG]12z_wed_new_1.gif20-Mar-2016 22:14 160K 
[IMG]18z_Wed.jpg20-Mar-2016 22:14 100K 
[IMG]50 yr ok.jpg20-Mar-2016 22:14 5.0M 
[IMG]101_1588.JPG20-Mar-2016 22:14 1.3M 
[IMG]101_1589.JPG20-Mar-2016 22:15 1.4M 
[IMG]101_1593.JPG20-Mar-2016 22:15 1.2M 
[IMG]102_2451.JPG20-Mar-2016 22:15 847K 
[IMG]123.JPG20-Mar-2016 22:15 20K 
[IMG]500_120402_12.gif20-Mar-2016 22:15 46K 
[IMG]500_120403_00.gif20-Mar-2016 22:15 45K 
[IMG]500_120403_12.gif20-Mar-2016 22:15 45K 
[IMG]500_120929_12.gif20-Mar-2016 22:15 40K 
[IMG]500_120930_12.gif20-Mar-2016 22:15 41K 
[IMG]500_121225_12.gif20-Mar-2016 22:15 43K 
[IMG]500_130219_00.gif20-Mar-2016 22:15 44K 
[IMG]10162012.gif20-Mar-2016 22:16 2.5M 
[IMG]AvgPrecip.png20-Mar-2016 22:16 164K 
[IMG]AvgTemp.png20-Mar-2016 22:16 58K 
[IMG]BF 07.jpg20-Mar-2016 22:16 722K 
[IMG]Banner.gif20-Mar-2016 22:16 11K 
[IMG]CAPE.png20-Mar-2016 22:16 142K 
[IMG]Camp Minden Debris Plume.gif20-Mar-2016 22:16 229K 
[IMG]Capture.JPG20-Mar-2016 22:16 34K 
[IMG]Capture1.jpg20-Mar-2016 22:16 55K 
[IMG]Capture2.JPG20-Mar-2016 22:16 126K 
[IMG]Capture7.JPG20-Mar-2016 22:16 125K 
[IMG]Chaperl_Hill_snow.jpg20-Mar-2016 22:16 1.0M 
[IMG]Christmas_banner.png20-Mar-2016 22:16 35K 
[IMG]CoCoRaHS_logo.gif20-Mar-2016 22:16 8.9K 
[IMG]Coop_title.JPG20-Mar-2016 22:16 38K 
[IMG]DEWPOINT1.png20-Mar-2016 22:17 25K 
[TXT]Dec_25_lsr.txt20-Mar-2016 22:17 8.5K 
[IMG]Dec_25_precip.jpg20-Mar-2016 22:17 109K 
[IMG]Dekalb_snow.jpeg20-Mar-2016 22:17 436K 
[IMG]Dewpointimg.png20-Mar-2016 22:17 30K 
[IMG]Drill_headline.JPG20-Mar-2016 22:17 31K 
[TXT]Dual_Pol_1.txt20-Mar-2016 22:17 1.1K 
[TXT]Dual_Pol_PNS.txt20-Mar-2016 22:17 1.1K 
[IMG]FFA_zoomed_out.jpg20-Mar-2016 22:17 45K 
[IMG]FFW_Radar.JPG20-Mar-2016 22:17 237K 
[IMG]Fire1.JPG20-Mar-2016 22:17 31K 
[IMG]Fire2.JPG20-Mar-2016 22:17 31K 
[IMG]FireWxBanner.JPG20-Mar-2016 22:17 28K 
[IMG]GFS40_Model_Run_Accum_Precip_20111207_1200F120.png20-Mar-2016 22:17 31K 
[IMG]Graph.jpg20-Mar-2016 22:18 81K 
[IMG]H500_4_1.gif20-Mar-2016 22:18 43K 
[IMG]H500_4_1_12z.gif20-Mar-2016 22:18 45K 
[IMG]Hog1.JPG20-Mar-2016 22:18 67K 
[IMG]Hog2.JPG20-Mar-2016 22:18 66K 
[IMG]Idabel_snow.jpg20-Mar-2016 22:18 93K 
[IMG]Idabel_snow2.jpg20-Mar-2016 22:18 73K 
[IMG]Idabel_snow3.jpg20-Mar-2016 22:18 49K 
[IMG]La Map.jpg20-Mar-2016 22:18 233K 
[IMG]Lows.JPG20-Mar-2016 22:18 67K 
[IMG]Map.JPG20-Mar-2016 22:18 92K 
[IMG]Minden.JPG20-Mar-2016 22:18 235K 
[TXT]NEWLCOSHV_pns.txt20-Mar-2016 22:18 691  
[IMG]NEw_FFW_1.png20-Mar-2016 22:18 1.1M 
[IMG]NEw_FFW_2.png20-Mar-2016 22:19 1.0M 
[IMG]Nashville_snow1.jpg20-Mar-2016 22:19 2.4M 
[IMG]Nashville_snow2.jpg20-Mar-2016 22:19 2.5M 
[IMG]Nashville_snow3.jpg20-Mar-2016 22:19 3.2M 
[IMG]NewSevere.JPG20-Mar-2016 22:19 24K 
[IMG]Observed_Precip.jpg20-Mar-2016 22:20 116K 
[TXT]PNS.txt20-Mar-2016 22:20 842  
[   ]PNS_1.rtf20-Mar-2016 22:20 1.4K 
[TXT]PNS_4_1.txt20-Mar-2016 22:20 1.7K 
[TXT]PNS_NEWLCOSHV.txt20-Mar-2016 22:20 691  
[IMG]Plume.gif20-Mar-2016 22:20 247K 
[   ]Plume.ppt20-Mar-2016 22:20 2.0M 
[IMG]Precip.png20-Mar-2016 22:20 83K 
[IMG]Precip3.JPG20-Mar-2016 22:20 25K 
[IMG]Precip_4_3.gif20-Mar-2016 22:20 26K 
[IMG]Precip_4_4.gif20-Mar-2016 22:20 37K 
[IMG]Precip_July7.jpg20-Mar-2016 22:20 88K 
[IMG]QPF_new.gif20-Mar-2016 22:20 36K 
[IMG]Radar3.20.JPG20-Mar-2016 22:21 104K 
[IMG]Radar_Tor1.JPG20-Mar-2016 22:21 180K 
[IMG]Radarimg.png20-Mar-2016 22:21 144K 
[IMG]Rain-gauge-photo.jpg20-Mar-2016 22:21 10K 
[IMG]Rain.JPG20-Mar-2016 22:21 44K 
[IMG]Rain_Dec_25.png20-Mar-2016 22:21 800K 
[TXT]Rain_reports.txt20-Mar-2016 22:21 6.0K 
[TXT]Rain_totals.txt20-Mar-2016 22:21 5.9K 
[TXT]Rain_totals_1.txt20-Mar-2016 22:21 626  
[IMG]Rainfall_1.jpg20-Mar-2016 22:21 132K 
[IMG]Rainfall_no_labels.jpg20-Mar-2016 22:21 104K 
[   ]Richardson.B_WFOSHV_AMS_Hydro_Paper.pdf20-Mar-2016 22:21 1.0M 
[IMG]Risk_area_cut.JPG20-Mar-2016 22:21 18K 
[IMG]SPC_slight.gif20-Mar-2016 22:21 25K 
[IMG]Satellite.jpg20-Mar-2016 22:21 60K 
[IMG]Slight1.JPG20-Mar-2016 22:22 22K 
[IMG]Slight2.JPG20-Mar-2016 22:22 27K 
[IMG]Snow_Dekalb.jpeg20-Mar-2016 22:22 1.2M 
[IMG]Snow_total_Dec_25.JPG20-Mar-2016 22:22 99K 
[IMG]Snow_totals_graphic.JPG20-Mar-2016 22:22 68K 
[IMG]Snowflake_simply.png20-Mar-2016 22:22 54K 
[IMG]Surface_1.png20-Mar-2016 22:22 15K 
[IMG]Surface_2.png20-Mar-2016 22:22 15K 
[IMG]Surface_3.png20-Mar-2016 22:22 16K 
[IMG]Surface_4_1.gif20-Mar-2016 22:22 25K 
[IMG]Surface_4_2.JPG20-Mar-2016 22:22 132K 
[IMG]Surface_4_3.gif20-Mar-2016 22:22 226K 
[IMG]Temps.png20-Mar-2016 22:22 89K 
[IMG]Thu_12z_1.gif20-Mar-2016 22:23 27K 
[IMG]Untitled.png20-Mar-2016 22:23 95K 
[IMG]Wed_severe.gif20-Mar-2016 22:23 24K 
[IMG]White Christmas.JPG20-Mar-2016 22:23 62K 
[IMG]banner1.png20-Mar-2016 22:23 77K 
[IMG]blue.JPG20-Mar-2016 22:23 8.4K 
[IMG]coco1.JPG20-Mar-2016 22:23 122K 
[IMG]cocorahs_logo_blue-transpar.gif20-Mar-2016 22:23 8.9K 
[IMG]d13_fill.gif20-Mar-2016 22:23 31K 
[IMG]day1otlk_1200.gif20-Mar-2016 22:24 29K 
[IMG]day1otlk_1200_1.gif20-Mar-2016 22:24 28K 
[IMG]day1otlk_1200_3.gif20-Mar-2016 22:24 28K 
[IMG]day1otlk_1300.gif20-Mar-2016 22:24 28K 
[IMG]day1otlk_1630.gif20-Mar-2016 22:24 28K 
[IMG]day1otlk_20121225_1200_prt.gif20-Mar-2016 22:24 27K 
[IMG]day2otlk_0600.gif20-Mar-2016 22:24 27K 
[IMG]day2otlk_1730.gif20-Mar-2016 22:24 28K 
[IMG]day3otlk_0730.gif20-Mar-2016 22:24 26K 
[IMG]day3otlk_0730_1.gif20-Mar-2016 22:24 28K 
[IMG]day4prob.gif20-Mar-2016 22:24 24K 
[IMG]day5prob.gif20-Mar-2016 22:24 24K 
[IMG]day48prob.gif20-Mar-2016 22:25 24K 
[   ]dec_25_lsr.pdf20-Mar-2016 22:25 131K 
[IMG]email.jpg20-Mar-2016 22:25 59K 
[IMG]headline_newlcoshv.JPG20-Mar-2016 22:25 17K 
[IMG]ice.png20-Mar-2016 22:25 1.0M 
[IMG]image_full1.jpg20-Mar-2016 22:25 230K 
[IMG]new.png20-Mar-2016 22:25 138K 
[IMG]new1.png20-Mar-2016 22:25 176K 
[IMG]new2.png20-Mar-2016 22:25 446K 
[IMG]new3.png20-Mar-2016 22:25 167K 
[IMG]new4.png20-Mar-2016 22:25 204K 
[IMG]new5.png20-Mar-2016 22:25 154K 
[IMG]new6.png20-Mar-2016 22:25 203K 
[IMG]p120i12.gif20-Mar-2016 22:25 41K 
[IMG]precip2.JPG20-Mar-2016 22:26 83K 
[IMG]qpf_3day.gif20-Mar-2016 22:26 37K 
[IMG]qpf_5day.gif20-Mar-2016 22:26 37K 
[IMG]radar_kshv.jpg20-Mar-2016 22:26 72K 
[IMG]rainfall.jpg20-Mar-2016 22:26 230K 
[IMG]rr holm (1).jpg20-Mar-2016 22:26 861K 
[IMG]rr holm.jpg20-Mar-2016 22:26 861K 
[IMG]sfc_121225_12.gif20-Mar-2016 22:26 41K 
[IMG]slight3.JPG20-Mar-2016 22:26 72K 
[IMG]snow.JPG20-Mar-2016 22:26 19K 
[IMG]snow1.JPG20-Mar-2016 22:26 59K 
[IMG]snow2.JPG20-Mar-2016 22:26 61K 
[IMG]snowflake.jpg20-Mar-2016 22:26 64K 
[IMG]storm_reports_dec_25.png20-Mar-2016 22:26 36K 
[IMG]ussfc2012122512.gif20-Mar-2016 22:26 44K 
[IMG]wind3.png20-Mar-2016 22:27 33K 

Apache/2.2.15 (Red Hat) Server at www.srh.noaa.gov Port 80